Weather History for Valley City, ND

Change the Weather History Date:

Sunday, December 1, 2013

  Actual Average (KJMS) Record (KJMS)
Temperature  
Mean Temperature 22 °F 19 °F  
Max Temperature 24 °F 28 °F 63 °F (1969)
Min Temperature 19 °F 10 °F -22 °F (1926)
Degree Days  
Heating Degree Days 44 46  
Month to date heating degree days 46  
Since 1 July heating degree days 2130  
Cooling Degree Days 0 0  
Month to date cooling degree days 0  
Year to date cooling degree days 446  
Moisture  
Dew Point 21 °F    
Average Humidity 100    
Maximum Humidity 100    
Minimum Humidity 100    
Precipitation  
Precipitation 0.13 in 0.01 in 0.54 in (1985)
Month to date precipitation 0.01  
Year to date precipitation 18.38  
Sea Level Pressure  
Sea Level Pressure 30.01 in    
Wind  
Wind Speed 6 mph (ESE)    
Max Wind Speed 16 mph    
Max Gust Speed 18 mph    
Visibility 2 miles    
Events Fog , Snow    
T = Trace of Precipitation, MM = Missing Value Source: NWS Daily Summary

Daily Weather History Graph

Daily Weather History Graph

Search for Another Location

Airport:

Trip Planner

Search our weather history database for the weather conditions in past years. The results will help you decide how hot, cold, wet, or windy it might be!

Date:

Astronomy

Dec. 01, 2013 Rise Set
Actual Time 7:57 AM CST 4:45 PM CST
Civil Twilight 7:22 AM CST 5:19 PM CST
Nautical Twilight 6:44 AM CST 5:57 PM CST
Astronomical Twilight 6:07 AM CST 6:34 PM CST
Moon 6:11 AM CST (12/1) 4:00 PM CST (12/1)
Length of Visible Light 9h 57m
Length of Day
8h 47m
Waning Crescent, 2% of the Moon is Illuminated
Dec 1
Waning Crescent
Dec 2
New
Dec 9
First Quarter
Dec 17
Full
Dec 25
Last Quarter

Hourly Weather History & Observations

Time (CST) Temp. Windchill Dew Point Humidity Pressure Visibility Wind Dir Wind Speed Gust Speed Precip Events Conditions
12:15 AM 21.2 °F - 21.2 °F 100% 30.19 in 0.8 mi Calm Calm - N/A   Overcast
12:35 AM 21.2 °F - 21.2 °F 100% 30.19 in 1.5 mi Calm Calm - N/A   Overcast
12:55 AM 21.2 °F - 21.2 °F 100% 30.18 in 1.0 mi Calm Calm - N/A   Overcast
1:15 AM 21.2 °F - 21.2 °F 100% 30.17 in 0.8 mi Calm Calm - N/A   Overcast
1:35 AM 21.2 °F - 21.2 °F 100% 30.17 in 0.5 mi Calm Calm - N/A Fog Light Freezing Fog
1:55 AM 21.2 °F - 21.2 °F 100% 30.18 in 0.5 mi Calm Calm - N/A Fog Light Freezing Fog
2:15 AM 21.2 °F - 21.2 °F 100% 30.18 in 1.0 mi Calm Calm - N/A   Overcast
2:35 AM 21.2 °F - 21.2 °F 100% 30.18 in 1.0 mi Calm Calm - N/A   Overcast
2:55 AM 21.2 °F 16.4 °F 21.2 °F 100% 30.17 in 1.2 mi East 3.5 mph - N/A   Overcast
3:15 AM 21.2 °F 16.4 °F 21.2 °F 100% 30.17 in 1.0 mi East 3.5 mph - N/A   Overcast
3:35 AM 21.2 °F 16.4 °F 21.2 °F 100% 30.18 in 0.5 mi East 3.5 mph - N/A   Overcast
3:55 AM 21.2 °F 12.6 °F 21.2 °F 100% 30.17 in 0.5 mi East 6.9 mph - N/A Fog Light Freezing Fog
4:15 AM 21.2 °F 14.9 °F 21.2 °F 100% 30.16 in 0.5 mi ESE 4.6 mph - N/A Fog Light Freezing Fog
4:35 AM 21.2 °F 13.6 °F 21.2 °F 100% 30.16 in 0.5 mi East 5.8 mph - N/A Fog Light Freezing Fog
4:55 AM 21.2 °F 14.9 °F 21.2 °F 100% 30.15 in 0.5 mi East 4.6 mph - N/A Fog Light Freezing Fog
5:15 AM 21.2 °F 14.9 °F 21.2 °F 100% 30.15 in 0.8 mi SE 4.6 mph - N/A   Overcast
5:35 AM 21.2 °F - 21.2 °F 100% 30.15 in 1.0 mi Calm Calm - N/A   Overcast
5:55 AM 19.4 °F 14.3 °F 19.4 °F 100% 30.14 in 0.8 mi ESE 3.5 mph - N/A   Overcast
6:15 AM 19.4 °F 12.8 °F 19.4 °F 100% 30.14 in 1.0 mi SE 4.6 mph - N/A   Overcast
6:35 AM 19.4 °F 11.5 °F 19.4 °F 100% 30.14 in 0.8 mi SE 5.8 mph - N/A   Overcast
6:55 AM 19.4 °F 12.8 °F 19.4 °F 100% 30.14 in 0.5 mi ESE 4.6 mph - N/A Fog Light Freezing Fog
7:15 AM 19.4 °F 12.8 °F 19.4 °F 100% 30.14 in 0.5 mi SSE 4.6 mph - N/A Fog Light Freezing Fog
7:35 AM 19.4 °F 12.8 °F 19.4 °F 100% 30.13 in 0.5 mi SE 4.6 mph - N/A Fog Light Freezing Fog
7:55 AM 19.4 °F 9.5 °F 19.4 °F 100% 30.12 in 0.2 mi SSE 8.1 mph - N/A Fog Light Freezing Fog
8:15 AM 19.4 °F 11.5 °F 19.4 °F 100% 30.12 in 0.2 mi SE 5.8 mph - N/A Fog Light Freezing Fog
8:35 AM 19.4 °F 9.5 °F 19.4 °F 100% 30.12 in 0.2 mi SE 8.1 mph - N/A Snow Heavy Snow
8:55 AM 19.4 °F 9.5 °F 19.4 °F 100% 30.11 in 0.2 mi SE 8.1 mph - N/A Fog Light Freezing Fog
9:15 AM 19.4 °F 9.5 °F 19.4 °F 100% 30.11 in 0.2 mi SE 8.1 mph - N/A Fog Light Freezing Fog
9:35 AM 19.4 °F 7.2 °F 19.4 °F 100% 30.10 in 0.2 mi SE 11.5 mph - N/A Fog Light Freezing Fog
9:55 AM 19.4 °F 7.9 °F 19.4 °F 100% 30.10 in 0.2 mi ESE 10.4 mph - N/A Fog Light Freezing Fog
10:15 AM 19.4 °F 8.6 °F 19.4 °F 100% 30.11 in 0.2 mi SE 9.2 mph - N/A Fog Light Freezing Fog
10:35 AM 19.4 °F 8.6 °F 19.4 °F 100% 30.11 in 0.2 mi SE 9.2 mph - N/A Fog Light Freezing Fog
10:55 AM 19.4 °F 8.6 °F 19.4 °F 100% 30.09 in 0.2 mi SE 9.2 mph - N/A Fog Light Freezing Fog
11:15 AM 19.4 °F 7.9 °F 19.4 °F 100% 30.08 in 0.2 mi SE 10.4 mph - N/A Fog Light Freezing Fog
11:35 AM 19.4 °F 6.6 °F 19.4 °F 100% 30.07 in 0.2 mi ESE 12.7 mph - N/A Fog Light Freezing Fog
11:55 AM 19.4 °F 7.2 °F 19.4 °F 100% 30.06 in 0.2 mi SE 11.5 mph 16.1 mph N/A Fog Light Freezing Fog
12:15 PM 19.4 °F 7.2 °F 19.4 °F 100% 30.04 in 0.2 mi SE 11.5 mph - N/A Fog Light Freezing Fog
12:35 PM 19.4 °F 6.6 °F 19.4 °F 100% 30.03 in 0.2 mi ESE 12.7 mph - N/A Fog Light Freezing Fog
12:55 PM 19.4 °F 6.0 °F 19.4 °F 100% 30.02 in 0.2 mi SE 13.8 mph - N/A Fog Light Freezing Fog
1:15 PM 19.4 °F 5.5 °F 19.4 °F 100% 30.00 in 0.2 mi ESE 15.0 mph - N/A Fog Light Freezing Fog
1:35 PM 19.4 °F 6.6 °F 19.4 °F 100% 29.99 in 0.5 mi ESE 12.7 mph - N/A Fog Light Freezing Fog
1:55 PM 19.4 °F 7.2 °F 19.4 °F 100% 29.98 in 0.8 mi ESE 11.5 mph - N/A   Overcast
2:15 PM 19.4 °F 6.0 °F 19.4 °F 100% 29.96 in 0.5 mi ESE 13.8 mph - N/A Fog Light Freezing Fog
2:35 PM 19.4 °F 6.6 °F 19.4 °F 100% 29.95 in 0.5 mi ESE 12.7 mph - N/A Fog Light Freezing Fog
2:55 PM 19.4 °F 7.2 °F 19.4 °F 100% 29.95 in 1.0 mi ESE 11.5 mph - N/A   Overcast
3:15 PM 19.4 °F 7.2 °F 19.4 °F 100% 29.94 in 1.8 mi SE 11.5 mph - N/A Snow Light Snow
3:35 PM 19.4 °F 6.0 °F 19.4 °F 100% 29.93 in 2.5 mi ESE 13.8 mph - N/A Snow Light Snow
3:55 PM 19.4 °F 6.6 °F 19.4 °F 100% 29.92 in 3.0 mi ESE 12.7 mph - N/A   Overcast
4:15 PM 19.4 °F 5.0 °F 19.4 °F 100% 29.91 in 3.0 mi SE 16.1 mph - N/A Snow Light Snow
4:35 PM 19.4 °F 5.5 °F 19.4 °F 100% 29.90 in 1.5 mi SE 15.0 mph 18.4 mph 0.01 in Snow Light Snow
4:55 PM 19.4 °F 7.2 °F 19.4 °F 100% 29.90 in 4.0 mi ESE 11.5 mph - 0.02 in Snow Light Snow
5:15 PM 21.2 °F 9.5 °F 21.2 °F 100% 29.89 in 3.0 mi ESE 11.5 mph - 0.01 in Snow Light Snow
5:35 PM 21.2 °F 10.9 °F 21.2 °F 100% 29.88 in 3.0 mi ESE 9.2 mph - 0.09 in Snow Light Snow
5:55 PM 21.2 °F 10.1 °F 21.2 °F 100% 29.89 in 5.0 mi SE 10.4 mph - 0.11 in Snow Light Snow
6:15 PM 21.2 °F 10.1 °F 21.2 °F 100% 29.88 in 6.0 mi ESE 10.4 mph - N/A   Overcast
6:35 PM 21.2 °F 10.1 °F 21.2 °F 100% 29.87 in 5.0 mi SE 10.4 mph - N/A   Overcast
6:55 PM 23.0 °F 13.1 °F 23.0 °F 100% 29.86 in 5.0 mi ESE 9.2 mph - N/A   Overcast
7:15 PM 23.0 °F 12.4 °F 23.0 °F 100% 29.85 in 4.0 mi ESE 10.4 mph - N/A   Overcast
7:35 PM 23.0 °F 11.1 °F 23.0 °F 100% 29.84 in 4.0 mi ESE 12.7 mph - N/A   Overcast
7:55 PM 23.0 °F 12.4 °F 23.0 °F 100% 29.84 in 4.0 mi ESE 10.4 mph - N/A   Overcast
8:15 PM 23.0 °F 12.4 °F 23.0 °F 100% 29.83 in 4.0 mi ESE 10.4 mph - N/A   Overcast
8:35 PM 23.0 °F 11.7 °F 23.0 °F 100% 29.82 in 5.0 mi SE 11.5 mph - N/A   Overcast
8:55 PM 23.0 °F 11.1 °F 23.0 °F 100% 29.82 in 5.0 mi SE 12.7 mph - N/A   Overcast
9:15 PM 23.0 °F 11.7 °F 23.0 °F 100% 29.81 in 5.0 mi ESE 11.5 mph - N/A   Overcast
9:35 PM 24.8 °F 13.4 °F 24.8 °F 100% 29.80 in 5.0 mi ESE 12.7 mph - N/A   Overcast
9:55 PM 23.0 °F 11.7 °F 23.0 °F 100% 29.79 in 6.0 mi ESE 11.5 mph - N/A   Overcast
10:15 PM 23.0 °F 10.6 °F 23.0 °F 100% 29.78 in 6.0 mi SE 13.8 mph 17.3 mph N/A   Scattered Clouds
10:35 PM 24.8 °F 13.4 °F 24.8 °F 100% 29.77 in 6.0 mi ESE 12.7 mph 17.3 mph N/A   Mostly Cloudy
10:55 PM 23.0 °F 12.4 °F 23.0 °F 100% 29.76 in 5.0 mi ESE 10.4 mph - N/A   Mostly Cloudy
11:15 PM 23.0 °F 13.1 °F 23.0 °F 100% 29.76 in 5.0 mi ESE 9.2 mph - N/A   Overcast
11:35 PM 23.0 °F 13.9 °F 23.0 °F 100% 29.76 in 5.0 mi East 8.1 mph - N/A   Overcast
11:55 PM 23.0 °F 13.9 °F 23.0 °F 100% 29.75 in 5.0 mi ESE 8.1 mph - N/A   Overcast